TIMESTAMP,CO2_1_1_1,H2O_1_1_1,TAU_1_1_1,TAU_SSITC_TEST_1_1_1,H_1_1_1,H_SSITC_TEST_1_1_1,LE_1_1_1,LE_SSITC_TEST_1_1_1,FC_1_1_1,FC_SSITC_TEST_1_1_1,WD_0_0_1,WS_0_0_1,WS_MAX_0_0_1,U_SIGMA_0_0_1,V_SIGMA_0_0_1,W_SIGMA_0_0_1,USTAR_0_0_1,MO_LENGTH_0_0_1,ZL_0_0_1,FETCH_MAX_0_0_1,FETCH_70_0_0_1,FETCH_80_0_0_1,FETCH_90_0_0_1,PA_0_0_1,RH_0_0_1,TA_0_0_1,VPD_0_0_1,T_SONIC_0_0_1,T_SONIC_SIGMA_0_0_1
[yyyymmddHHMMSS],[mmolCO2 mol-1],[mmolH2O mol-1],[kg m-1 s-2],[#],[W m-2],[#],[W m-2],[#],[umolCO2 m-2 s-1],[#],[Decimal degrees],[m s-1],[m s-1],[m s-1],[m s-1],[m s-1],[m s-1],[m],[#],[m],[m],[m],[m],[kPa],[%],[deg C],[hPa],[deg C],[deg C]
20210403003000,423.36830877647941,3.2415450285901000,0.48929455940880856,0,-54.157238584232779,0,10.762210992570980,0,0.96491014167338018,0,158.75577193986916,2.9043312101692726,9.2484996448817274,1.4496970532018920,1.1078602725297735,0.84354771056309408,0.64688751912710718,416.91993306749640,4.5572299362630936E-002,101.25819852085434,185.13228154215582,221.55605756149228,277.36189326878349,94.092854469835075,30.841379310344827,6.8568965517241622,6.8412854613965326,6.3565601696438989,0.21892885301977935
20210403010000,423.49816749444466,3.2739506849012296,1.1888523711895580,0,-93.073583604736811,0,22.458817424915264,0,1.9081449848593870,0,163.01195188139653,4.0142361812302951,11.802691642989629,2.0613755520984829,1.5755595457080680,1.2094658724157694,1.0075876930054906,916.79167647776478,2.0724446444579835E-002,108.19477510734782,197.81455584989948,236.73350080980697,296.36225119473954,94.100897887990300,32.017000000000003,6.4590000000000032,6.5433789052313509,5.9468240199270781,0.20665247696848812
20210403013000,423.66768224254236,3.3206429189994080,0.82987790018364915,0,-87.428163322289052,0,22.229602821219114,0,2.1494209184898594,0,158.75808701316535,4.0379390870085583,11.815424801861491,1.7328423552926744,1.4873761100994649,1.0707049077317841,0.84107885519369330,567.65103576513422,3.3471268090597223E-002,103.22584271859056,188.72976268354773,225.86132367823441,282.75157556548220,94.093278280598952,33.677666666666667,5.9306666666666388,6.1548157858099000,5.4290199296739843,0.23713691302392251
20210403020000,423.96156217091743,3.3863563559538985,0.87622547562573172,0,-72.388702758992508,0,16.684530527964927,0,1.8185537648711196,0,152.99092741428163,3.9998341127777612,11.456205113254331,1.8289333323677734,1.3726122729027082,1.0792770471413673,0.86345659353848547,741.72413737167540,2.5615992580917138E-002,104.74684604843614,191.51064186963691,229.18932581752870,286.91783932877848,94.083735844618062,35.663666666666664,5.3856666666666797,5.7490224595603561,4.8992822028266119,0.19379281147289265
20210403023000,424.09787695409477,3.4593062338913576,1.2506295098680058,0,-68.771197066549789,0,20.762251957838739,0,1.7734728130601645,0,156.54458074717294,4.2398879142990307,11.968444457583116,2.0829754751831930,1.5881818136415464,1.1759090283485272,1.0310888949188382,1329.4950999416244,1.4291139546760461E-002,112.71787884707867,206.08423205607622,246.63019112382653,308.75173308389725,94.086823581894450,37.088000000000001,5.1296666666666511,5.5224828147237757,4.6385754087489204,0.17238188310699898
20210403030000,424.17391390652978,3.4960376153271078,0.92183072749437200,0,-52.806614875992885,0,14.011640119179081,0,1.3292325263103346,0,156.68018812985383,3.6975596664565007,11.018791965800936,1.7706568661194970,1.4752371830197695,1.1142371904321464,0.88473764002575117,1093.9450999354324,1.7368330459290354E-002,104.11765620266084,190.36028216175063,227.81263905315782,285.19439086338048,94.097403146701382,38.234999999999999,4.8460000000000036,5.3155910975034777,4.3736044828626746,0.14827922815428646
20210403033000,424.29448348460835,3.5221839367453662,0.80391429808809922,0,-66.161471301280500,0,18.309405301977993,0,1.8298006421207416,0,159.90476628433342,3.6522879633622094,10.147934807175886,1.6498237152634372,1.4323699389282802,1.0485557858382906,0.82608840790549709,710.69612227998903,2.6734351580596741E-002,103.46724595623127,189.17112479356871,226.38952139847373,283.41281643300022,94.087758406684017,38.833999999999996,4.7286666666666406,5.2210708580235732,4.2685990583631792,0.15860249975542803
20210403040000,424.63231021219258,3.5245723297647147,0.67160406692358132,0,-38.928055969390464,0,13.942396693974716,0,1.0940885873594064,0,154.00910926654862,3.6542767267481429,10.785509823475333,1.8008261405052448,1.3677508559348193,0.99230570532376106,0.75474701516034137,920.90118476555404,2.0631963900488499E-002,100.59574989611711,183.92111417898369,220.10659956423603,275.54734385516167,94.046599938802103,39.801000000000002,4.3806666666666843,5.0148887023083653,3.9086581548055506,0.25294025136830411
20210403043000,424.97209113581926,3.5589049726968187,0.69923007216060462,0,-49.491457046483411,0,14.114395335539442,0,1.3868502505134574,0,157.64502277768676,3.5109633435006313,9.7392881129640028,1.5925984280807410,1.2421795255900980,0.95977082924868506,0.76964143563396192,767.88937914729706,2.4743147276107078E-002,104.94255068691861,191.86845236557593,229.61753359509194,287.45390465330428,94.014078328810015,41.434333333333335,3.9409999999999741,4.7305158260080660,3.4787714110392471,0.15202490497067339
20210403050000,425.23128160344874,3.5897326235631075,0.85232398363960460,0,-58.851917737050677,0,19.169730944851857,0,1.9361530050458073,0,156.41561134292328,3.6244235707653392,9.5828220857921558,1.6215083249005122,1.2077675949350044,1.0156273110649729,0.84946891223256338,868.03212361753572,2.1888590851704012E-002,108.53889475897761,198.44371632441249,237.48644520797171,297.30484823360916,93.980769656263902,42.584333333333333,3.6696666666666715,4.5498610921782818,3.2133167492786470,0.13509855326190365
20210403053000,425.45444554692205,3.6163736152639876,0.58985109242552458,0,-45.123709728572216,0,14.506059285826248,0,1.6141629986114452,0,154.40950880531543,3.5465535910166714,9.1226479238625213,1.4911306199390642,1.2066680883663246,0.88240248550896028,0.70664468000062308,651.49908628458309,2.9163509819107494E-002,104.82923019132913,191.66126635792003,229.36958485997252,287.14350225960197,93.938514260199653,43.326999999999998,3.5230000000000246,4.4447879016940979,3.0606679984198308,0.14034651036990800
20210403060000,425.73008272631432,3.6422520423056515,0.48319503383402224,0,-50.047956499794211,0,13.470102815641155,0,1.8372139101616405,0,151.91430812944503,3.0793745442567273,8.8872333695655197,1.3089541233020863,1.1189020956899587,0.86998114517822445,0.63933028139708303,435.00002236435995,4.3678158673944686E-002,97.864965526262935,178.92836941188568,214.13155924282611,268.06730239683401,93.933740003472224,44.343333333333334,3.2950000000000159,4.2953340536041411,2.8451176350911282,0.14285843076550767
20210403063000,425.98053141021308,3.6596909719858015,0.45479848457844652,0,-43.626178419301745,0,10.256579242792954,0,1.4855205807231036,0,147.28693140335361,2.9368773437121325,7.4050877581665553,1.2589530979402086,1.0141456558308095,0.77500985051073390,0.62001120451799641,455.08499584628498,4.1750442606149268E-002,104.74390286863435,191.50526079828018,229.18288604945951,286.90977750332650,93.916146272692401,45.423000000000002,3.0199999999999818,4.1308079382097649,2.5659785282988423,0.14707091099790731
20210403070000,426.33621739024363,3.6723127307509587,0.46497547263505395,0,-24.624386810279457,1,7.5218404216053285,0,1.0382027839794314,0,144.84435035615823,3.0442034999344134,7.4782310340199638,1.2905199640546330,0.96197469200616381,0.74088764952760122,0.62659811011361743,831.99368051881220,2.2836711918475191E-002,109.50760484637202,200.21482731840570,239.60601271972192,299.95829524128970,93.879448606336808,46.819666666666670,2.6363333333333117,3.9169624246008734,2.1769670520359341,0.20037567020231850
20210403073000,426.65824100132323,3.6895083684000602,0.26865183816422256,0,-46.548180826936637,0,6.2238328448479852,0,1.1297540075705090,0,153.21773616314036,2.7014684046125317,6.6386536790254613,1.0138889494353525,0.94672035936702292,0.67400105350600581,0.47593305122657986,192.82873331806556,9.8533033293643199E-002,94.790132841268047,173.30659459612838,207.40373060968705,259.64485930133225,93.855416412804544,48.670666666666669,2.1539999999999964,3.6529409219235380,1.7110605391837908,0.16966604350725084
20210403080000,426.79261919372470,3.7098431416207611,0.32249553196129532,0,-57.289422799740848,0,10.386801403550399,0,1.5748588152175118,0,161.56938079696690,3.2940015520399428,7.7423946368713441,1.1203446782849276,1.0511440582307989,0.76291888528425789,0.52147182665914305,206.03922752297598,9.2215449593846199E-002,92.354250325949081,168.85302447324327,202.07394463027430,252.97259971051949,93.823342799913192,49.179000000000002,2.0806666666666729,3.5978780724647756,1.6660891969469276,0.19412070138604348
20210403083000,426.82893209085915,3.7402923313979910,0.37513013206959378,0,-71.026647945307531,0,9.8134327099385814,0,1.6762024934456321,0,167.66323086176433,3.1511107316513027,7.6314044778297774,1.2266237447365962,0.97699899982564908,0.74955730253405894,0.56265516029149887,208.71523168095521,9.1033126077945489E-002,99.541658667761240,181.99389922839470,217.80021548594752,272.66002467463534,93.797221241319448,49.036333333333332,2.2319999999999709,3.6471588279526270,1.8231474914550745,0.22550391138571865
20210403090000,426.75868603173342,3.7701859769359483,0.31591905233664597,0,-62.115937033802147,0,6.3099703188826481,0,1.3698656738355592,0,179.62760598136018,3.1643622961000291,7.1928812062913394,1.1392334697301425,1.0496147375102931,0.73954391523518370,0.51656627556480861,184.67741325731160,0.10288209946674552,93.968991276746721,171.80528592651362,205.60704757174267,257.39562533999111,93.793174883246522,48.650333333333336,2.4540000000000077,3.7333808755059481,2.0484008975558936,0.22075268422384953
20210403093000,426.88644761735134,3.7741122568599632,0.34015228160916544,0,-68.115016476296461,0,5.8575780597600691,0,1.3070791709195655,0,180.99114096375476,3.0104427066112907,7.8519700802867716,1.1586137982834628,1.0232180942740607,0.70447459991667405,0.53604120129581379,188.17122163462153,0.10097186931640879,100.62853868807802,183.98106254813706,220.17834245108551,275.63715743617655,93.781873657986111,48.709000000000003,2.4499999999999886,3.7280536274170171,2.0148865534465017,0.22453843508151783
20210403100000,427.15536356964020,3.8091132335075208,0.24414613887188055,0,-48.868124629242772,0,4.4472145559443348,0,1.0402323046529196,0,187.41009482420003,2.8647287243328359,6.7141200282138662,1.1568098852604536,0.94689978889051951,0.67333821516484782,0.45394462853489670,159.28726251724561,0.11928135181520193,91.342016339326477,167.00233791022524,199.85914548628529,250.19993399987251,93.780561325086808,50.009333333333331,2.2096666666666920,3.5718322458094720,1.7870839233398783,0.20246476478948425
20210403103000,427.49063753807985,3.8239939225929325,0.30099398349996154,0,-71.961254786171125,0,7.8560709197396559,0,1.7860106914968044,0,186.77754007303355,2.6032588503775087,7.3348136781653057,1.1201921618856960,0.87841651033139345,0.66205886917047496,0.50368832775168537,147.76524735208557,0.12858233137002786,100.61601738623290,183.95816961489976,220.15094545693722,275.60285965054845,93.777154197916673,51.604333333333336,1.8243333333333567,3.3639615789226616,1.3906911290487187,0.22454181468993847
20210403110000,427.69008573586717,3.8344761858095917,0.16467952832087593,0,-48.105019365899686,0,3.1270614263852328,0,1.0550817017155847,0,186.44320910789139,2.6362720205367633,5.6387179754598957,0.84495941085896886,0.78402844645573666,0.57502941918959227,0.37229502195836828,89.271580549290789,0.21283369111527334,88.432648439865332,161.68308549471027,193.49335890093718,242.23072458673278,93.794706221780359,53.066333333333333,1.4753333333333103,3.1817514852472351,1.0603442125036509,0.20726830711499433
20210403113000,427.94527831002478,3.8402450776897847,0.15975797651509202,0,-49.064485669959836,0,3.1038507847200911,0,1.1204682965559147,0,190.63675673982857,2.3341061225963928,6.0174318084889578,0.84855664245969331,0.75274440234137019,0.51036643910414581,0.36644677368543344,83.476430816712949,0.22760915643024809,96.063395912968517,175.63452557762548,210.18966943267029,263.13252411618021,93.812261150824654,54.365333333333332,1.1623333333333221,3.0248779194988602,0.73154328325057350,0.22508126479807558
20210403120000,427.96413705208499,3.8446834132949541,0.14216789232042193,0,-37.449082119551569,0,0.55729157756151582,1,0.47762430109049264,0,190.99131937315565,2.7107743962802551,5.2814536390484363,0.75124670879772781,0.67959399913792762,0.45532847168998564,0.34552921665549979,91.696382448356616,0.20720555699894483,100.41136575057423,183.58400115462422,219.70316137394559,275.04228711463520,93.824855257583749,55.267666666666663,0.95166666666665378,2.9204205067735893,0.54324427834154676,0.18104157906748028
20210403123000,427.61044124322609,3.8644735354160984,0.18661921271875870,0,-37.735188182413786,0,1.4352531475634489,0,0.64960678505848846,0,191.07055690600808,2.6447735153208054,6.0954068671135140,0.87538434925619424,0.77545990210647109,0.51773444820675529,0.39596226919623256,136.96736151167903,0.13871917944757878,101.03975709836655,184.73290095352971,221.07810100013245,276.76354837034978,93.843235931423607,54.897333333333336,1.1189999999999714,2.9803053525660776,0.73403612094455184,0.21476582563744817
20210403130000,427.29784149452274,3.9319402315129124,0.19979998773372068,0,-4.6363858239072471,1,2.6864881133090019,0,0.35683572936566693,0,207.96058837917903,2.4485145699797473,6.3017736472744366,1.0181811791124167,0.73808966738540671,0.53603281019910032,0.41024619048729133,1239.9461344831411,1.5323246285952540E-002,101.09680872701315,184.83720952637941,221.20293172105229,276.91982161998919,93.854481227213554,52.941666666666670,1.8673333333333630,3.2810838773424398,1.4964199193318564,0.34735820603239465
20210403133000,426.97083711907777,4.0788685310840176,0.43498302037539233,0,31.931504408426754,0,7.4091321904190073,0,0.50909961091101685,0,221.58807943689564,2.6783056523662583,6.3137125264154053,1.0823045261652147,0.82997074057785325,0.68014493322413472,0.60657025472272574,-581.93916296497059,-3.2649460990381379E-002,114.25589420892445,208.89621466237105,249.99541611318267,312.96459543844685,93.850695585720487,50.731666666666669,2.9806666666666501,3.7186253311149775,2.6022852478026834,0.22598183410015105
20210403140000,426.74500654751074,4.2361248378624241,0.41059346919191025,0,21.452412809434051,2,3.2858546107403432,2,0.93317419981214100,1,240.37704413881625,2.9884945938206977,6.1928249630930212,1.0769137432667992,0.94402004955300856,0.67770969983270457,0.59029852313401465,-798.31740576646439,-2.3800057298961314E-002,112.11850439697390,204.98838440060842,245.31874136362811,307.10995360641863,93.840471777967849,49.536999999999999,3.8520000000000323,4.0505945654851834,3.4731603081340836,0.40528497595268237
20210403143000,426.11507834514094,4.4705108476094084,0.31466881289253590,1,127.65296718822454,0,13.595218324499323,1,-0.55999085764642398,1,245.46536758468949,2.2516488230976774,5.5015962128459748,0.91434575690753406,0.76981215388170943,0.60940539900781909,0.51825076456876296,-90.785526856259054,-0.20928446039733564,109.99218336876157,201.10079140572674,240.66628545385998,301.28563088789093,93.829542227430565,46.938000000000002,5.3906666666666752,4.7432090334993715,5.0689916229247842,0.58799244181879806
20210403150000,425.31376645389605,4.7247377226163101,0.35960085043650758,1,158.52260507877472,1,18.214746167803934,1,-1.0240249145697737,1,251.91778778916756,2.4191477421533327,6.3644191612305887,1.0641756745325146,0.81040615478806544,0.62360241552895490,0.55598324800013488,-90.273840843843914,-0.21047071690309802,114.22943635432522,208.84784126586376,249.93752551230128,312.89212327569197,93.831945527777776,43.335333333333331,7.3509999999999991,5.7984925359933666,6.9645754428440796,0.58607288040210559
20210403153000,425.09551734198817,4.8700118353311836,0.29815415348454000,1,161.98303373043927,0,18.695542898969702,0,-0.98964121240335945,1,270.97561410051622,2.1408660908794768,5.7820529787668766,0.94085045934229561,1.2495081557277941,0.62891550174034316,0.50753736690472750,-67.215613131014464,-0.28267241962021272,105.47644358503172,192.84457885973313,230.78570770241282,288.91632001508765,93.845879151285899,40.489333333333335,8.7970000000000255,6.7191740734231304,8.3687864637413441,0.56662442061176366
20210403160000,425.11277632609705,4.9393345277818579,0.20744018551387974,1,185.80593573847256,0,21.263816556321469,0,-0.86964504255352437,1,285.97310024763766,2.2974005626271041,5.5086812266073748,0.90556253273917320,0.86039388828874575,0.61066413156813637,0.42405132890071889,-34.183948711730565,-0.55581642016330191,93.529306314069302,171.00140158441286,204.64500332917385,256.19126010861777,93.869421540581598,38.385666666666665,9.8026666666666529,7.4442633379540801,9.3498638034396890,0.43699872310015719
20210403163000,425.09245961939416,5.0540881264609148,0.40822487170543897,1,247.12025553152040,0,28.264731062372110,0,-1.6457901895352240,1,286.00568444081927,2.1553703905269210,5.3699556882659722,1.2057451523672797,0.95611817501197716,0.68265976315836407,0.59583219698842860,-71.314375266165598,-0.26642594749076293,112.30281156636916,205.32535668801972,245.72201112773635,307.61479949735110,93.890847173177093,36.823000000000000,10.771666666666647,8.1437114764349570,10.271372229682015,0.62133423042685754
20210403170000,425.11259722860689,5.1743787695627912,0.24934457743304883,1,186.41610651235663,0,19.366610147482525,1,-1.3329885957556744,1,248.58451626958072,2.1511818704770236,5.8422457281947384,1.0793634273046362,0.84594413003807478,0.70334817286557816,0.46652213413410393,-45.379702520927239,-0.41868939073009542,90.160520835923847,164.84218731134138,197.27399692958244,246.96363477176789,93.890058609809032,35.210666666666668,11.801666666666677,8.9417715287644857,11.305570510864356,0.53570130526295223
20210403173000,424.72053289181332,5.3089706255286231,0.44928214374516767,0,201.32797570691454,0,33.894284392526849,0,0.20597336756088297,1,255.74687649698117,2.8063464607304285,6.6495830231274438,1.2402585328034894,1.0626876455895415,0.71289824551273817,0.62743674335095101,-102.22674940823185,-0.18586133384839895,113.05475192880775,206.70014348963582,247.36727980382230,309.67448064512735,93.893458694878476,33.612666666666669,12.899333333333345,9.8479173333424406,12.354166072421663,0.61047582853137383
20210403180000,423.56186855192755,4.9303083908478280,0.54070499426520380,0,168.15268171357567,0,48.696583889153409,1,0.48177438705616410,2,285.22944281267871,3.7007149093753773,10.013543982328377,1.7692427884976811,1.2799308435753050,0.85156931717429374,0.68946415182790544,-162.40124599567923,-0.11699417626700663,105.75191683017549,193.34823180954129,231.38845164857494,289.67088391148405,93.898352507917551,29.231999999999999,13.906999999999982,11.210550231342973,13.272582298878149,0.51883674209783193
20210403183000,422.75386101932600,4.5808574600001828,1.0534795070338905,0,305.15575524158078,0,105.14056026353605,0,1.7042733255505247,1,290.83274043126801,3.0369009203867665,9.0243678763092579,1.8057874193611729,1.7045360058019094,0.96872023686501552,0.96348581552210866,-244.22288424638842,-7.7797787290201384E-002,124.67301497597717,227.94203379480857,272.78839724462966,341.49870310148458,93.907753276475688,25.909333333333333,14.636666666666656,12.304726698756749,13.956103279113790,0.52009919580644948
20210403190000,421.17906334064895,3.6832061831689176,0.87234060486243947,0,228.57569998731068,0,24.942337859268893,0,-2.3331909668857622,1,303.37149384742582,4.0025233237449767,11.157082853749690,2.1263135673819384,1.8066732554974725,0.99322516374645109,0.87725656975567112,-246.09191839684954,-7.7206923834696878E-002,113.37519108380282,207.28600846379354,248.06841054588682,310.55221313499163,93.917674798611117,20.223666666666666,15.098333333333358,13.649099983810842,14.347136315239823,0.44477082606248231
20210403193000,421.13267020398058,3.6671396604322672,1.1907380060266186,0,267.98696807857050,0,72.169146072148621,0,1.2426541274351828,2,306.31854367689664,4.3143761964194143,11.504708722394010,2.1540102342732470,1.7657002031090265,1.1225422582844053,1.0253634389695609,-335.19678775839031,-5.6683120763362418E-002,116.46488518178538,212.93495468229690,254.82875640843980,319.01536394308476,93.927025721571184,19.781333333333333,15.375999999999976,13.971864897738625,14.654380313449451,0.43790193354423790
20210403200000,421.56493221095394,3.4439057645558555,0.78836202278379397,0,244.60850146688205,0,60.625071302223837,0,-1.5658563563083743,1,312.50432717884360,4.2162327929593459,10.981016435113782,1.9569320071363983,1.7603246904425567,1.0439430109074639,0.83407405134851464,-197.68426356803747,-9.6112860260425967E-002,104.63504251296696,191.30622934889047,228.94469623788152,286.61159212386212,93.946978677083337,18.681999999999999,15.291666666666686,14.086849586522790,14.488952058580253,0.45740841353581607
20210403203000,421.10692880739435,2.9594924884475176,0.82107692515570563,0,235.19355254425068,0,61.593586908761367,0,-0.31032853395816501,2,306.55840121172690,4.0231548223296727,11.417581390589694,1.9545413878499083,1.8139832437883039,1.0708644653812855,0.85099607942643385,-218.39514913979585,-8.6998269306054976E-002,104.18599439702233,190.48522617639267,227.96216512753773,285.38157976509461,93.973931177528556,16.064333333333334,15.286333333333346,14.535331912770289,14.410505593496282,0.43146976935363041
20210403210000,420.98723551372262,2.4293122738219330,1.0508379585193821,0,191.87398655739753,0,34.759325421614690,0,-0.15218697634245101,2,306.38086323942537,4.2344094092974469,13.318492811657224,2.1344138440872773,1.7829752413943314,1.0824804961896426,0.96146210873970506,-386.13496448173584,-4.9205593245101480E-002,113.88448819942957,208.21716602314316,249.18276832346928,311.94725683802051,94.008715822482642,13.705333333333334,14.692666666666639,14.383424455847628,13.745775548299207,0.35759440941901538
20210403213000,421.36014016256809,2.3723969764257764,0.66957864573387238,0,139.55529375974882,0,17.851720300040594,0,-0.77640053448780455,0,315.83577663573533,4.1718637219195784,10.638110648416145,1.8506226351608059,1.4710069101231278,0.96656188523561892,0.76687250755311109,-269.47118821989153,-7.0508465582212021E-002,104.05182510400465,190.23992191765510,227.66859858141072,285.01406928521726,94.050377375217010,13.669333333333332,14.373333333333335,14.095553820305486,13.437685630798399,0.31895288351170314
20210403220000,421.59172996709196,2.6584447582382560,0.60470876245920835,0,124.58927494581630,0,32.806499678508267,1,1.6138437863488220E-002,1,312.92224922666571,3.5967580787386186,9.8676571762905319,1.6460468124762426,1.3337844357503026,0.85672854904327100,0.72837517632442195,-258.70261834641491,-7.3443400462836095E-002,109.96751657321091,201.05569263638921,240.61231374534935,301.21806471335157,94.083733703484413,15.570333333333334,14.125999999999976,13.566125425570590,13.243280581217732,0.26989410898176430
20210403223000,421.44608151729301,2.7868479606602272,0.40545312311518467,0,98.007089149581688,0,8.8003210728673054,1,0.11974649753918286,2,302.04410123296725,3.1230300441569341,8.7530711188049644,1.4247636215768014,1.3194047027105600,0.79176226249248993,0.59623188276308703,-180.40628726598121,-0.10531783724359581,99.795559585030873,182.45811108270783,218.35575851419841,273.35549862287155,94.095964131727442,16.492666666666665,13.968000000000018,13.281113423113586,13.147501133388914,0.22830868918788710
20210403230000,421.05236944216807,2.9400559098967816,0.56324476744870333,0,78.821866744097804,0,11.847134046686566,0,0.34885941198924975,1,300.93607840724792,3.1677299387523044,7.9410733593026981,1.4172829366597988,1.2437183626270094,0.80096579255959843,0.70250356806799585,-366.96457656221253,-5.1776114681137013E-002,112.74117384818570,206.12682274765939,246.68116130383720,308.81554170092903,94.111988006076388,17.583333333333332,13.808666666666682,12.972714260938645,13.036402593824619,0.16647826872224106